TimeCDT,TemperatureF,Dew PointF,Humidity,Sea Level PressureIn,VisibilityMPH,Wind Direction,Wind SpeedMPH,Gust SpeedMPH,PrecipitationIn,Events,Conditions,WindDirDegrees,DateUTC
12:15 AM,14.5,8.2,76,30.04,10.0,WNW,10.4,-,N/A,,Clear,300,2013-03-21 05:15:00
12:35 AM,14.0,7.7,76,30.04,10.0,WNW,10.4,-,N/A,,Clear,290,2013-03-21 05:35:00
12:55 AM,13.8,7.7,77,30.03,10.0,WNW,9.2,-,N/A,,Clear,300,2013-03-21 05:55:00
1:15 AM,13.1,7.7,79,30.03,10.0,WNW,8.1,-,N/A,,Clear,300,2013-03-21 06:15:00
1:35 AM,12.9,7.5,79,30.04,10.0,WNW,10.4,-,N/A,,Clear,290,2013-03-21 06:35:00
1:55 AM,12.6,7.3,80,30.04,10.0,WNW,9.2,-,N/A,,Clear,300,2013-03-21 06:55:00
2:15 AM,12.6,7.3,80,30.03,10.0,WNW,9.2,-,N/A,,Clear,300,2013-03-21 07:15:00
2:35 AM,12.2,7.0,80,30.03,10.0,WNW,11.5,-,N/A,,Clear,300,2013-03-21 07:35:00
2:55 AM,11.8,6.8,80,30.02,10.0,WNW,8.1,-,N/A,,Clear,300,2013-03-21 07:55:00
3:15 AM,12.2,6.8,79,30.02,10.0,WNW,6.9,-,N/A,,Clear,300,2013-03-21 08:15:00
3:35 AM,11.8,6.6,80,30.02,10.0,NW,8.1,-,N/A,,Clear,310,2013-03-21 08:35:00
3:55 AM,11.3,5.7,78,30.01,10.0,WNW,9.2,-,N/A,,Clear,300,2013-03-21 08:55:00
4:15 AM,11.1,5.5,78,30.01,10.0,WNW,6.9,-,N/A,,Clear,300,2013-03-21 09:15:00
4:35 AM,11.3,5.4,77,30.01,10.0,WNW,10.4,-,N/A,,Clear,290,2013-03-21 09:35:00
4:55 AM,11.3,5.0,76,30.02,10.0,WNW,10.4,-,N/A,,Clear,290,2013-03-21 09:55:00
5:15 AM,10.9,5.0,77,30.02,10.0,WNW,10.4,-,N/A,,Clear,290,2013-03-21 10:15:00
5:35 AM,10.8,5.0,78,30.02,10.0,WNW,9.2,-,N/A,,Clear,300,2013-03-21 10:35:00
5:55 AM,10.4,5.0,79,30.02,10.0,WNW,9.2,-,N/A,,Clear,300,2013-03-21 10:55:00
6:15 AM,10.4,4.6,78,30.02,10.0,WNW,6.9,-,N/A,,Clear,300,2013-03-21 11:15:00
6:35 AM,10.2,4.6,78,30.03,10.0,NW,8.1,-,N/A,,Clear,310,2013-03-21 11:35:00
6:55 AM,10.0,4.6,79,30.03,10.0,WNW,9.2,-,N/A,,Clear,290,2013-03-21 11:55:00
7:15 AM,10.2,4.6,78,30.03,10.0,West,9.2,-,N/A,,Clear,280,2013-03-21 12:15:00
7:35 AM,10.8,5.0,78,30.03,10.0,West,10.4,-,N/A,,Clear,280,2013-03-21 12:35:00
7:55 AM,11.7,5.9,78,30.04,10.0,WNW,11.5,-,N/A,,Clear,290,2013-03-21 12:55:00
8:15 AM,12.7,6.4,76,30.04,10.0,WNW,12.7,-,N/A,,Clear,290,2013-03-21 13:15:00
8:35 AM,14.4,6.8,72,30.03,10.0,NW,11.5,-,N/A,,Clear,310,2013-03-21 13:35:00
8:55 AM,15.6,6.8,68,30.03,10.0,NW,9.2,-,N/A,,Clear,320,2013-03-21 13:55:00
9:15 AM,16.9,7.2,66,30.04,10.0,NW,10.4,-,N/A,,Clear,310,2013-03-21 14:15:00
9:35 AM,18.7,8.2,64,30.04,10.0,WNW,11.5,16.1,N/A,,Clear,300,2013-03-21 14:35:00
9:55 AM,19.9,8.2,61,30.04,10.0,WNW,12.7,-,N/A,,Clear,300,2013-03-21 14:55:00
10:15 AM,20.7,7.7,57,30.04,10.0,NW,10.4,17.3,N/A,,Clear,320,2013-03-21 15:15:00
10:35 AM,21.4,7.5,55,30.04,10.0,NW,10.4,17.3,N/A,,Clear,320,2013-03-21 15:35:00
10:55 AM,22.3,7.9,54,30.04,10.0,NNW,10.4,17.3,N/A,,Clear,330,2013-03-21 15:55:00
11:15 AM,23.4,8.4,53,30.04,10.0,NW,12.7,-,N/A,,Clear,310,2013-03-21 16:15:00
11:35 AM,23.5,8.4,53,30.04,10.0,NW,9.2,-,N/A,,Clear,310,2013-03-21 16:35:00
11:55 AM,24.3,8.8,52,30.04,10.0,WNW,11.5,17.3,N/A,,Clear,300,2013-03-21 16:55:00
12:15 PM,25.2,9.5,52,30.04,10.0,WNW,9.2,16.1,N/A,,Clear,290,2013-03-21 17:15:00
12:35 PM,26.1,10.6,52,30.03,10.0,WNW,10.4,-,N/A,,Clear,300,2013-03-21 17:35:00
12:55 PM,25.5,9.9,52,30.03,10.0,NW,10.4,-,N/A,,Clear,310,2013-03-21 17:55:00
1:15 PM,26.1,10.9,53,30.03,10.0,NW,10.4,-,N/A,,Clear,310,2013-03-21 18:15:00
1:35 PM,27.0,11.8,53,30.03,10.0,WNW,10.4,17.3,N/A,,Clear,300,2013-03-21 18:35:00
1:55 PM,27.1,12.2,53,30.03,10.0,WNW,11.5,17.3,N/A,,Clear,300,2013-03-21 18:55:00
2:15 PM,27.7,12.4,53,30.03,10.0,NW,11.5,17.3,N/A,,Clear,310,2013-03-21 19:15:00
2:35 PM,27.7,12.6,53,30.02,10.0,WNW,11.5,19.6,N/A,,Clear,290,2013-03-21 19:35:00
2:55 PM,27.7,12.9,54,30.02,10.0,WNW,10.4,-,N/A,,Clear,300,2013-03-21 19:55:00
3:15 PM,27.5,13.1,55,30.02,10.0,WNW,10.4,-,N/A,,Clear,290,2013-03-21 20:15:00
3:35 PM,27.9,12.9,54,30.02,10.0,WNW,10.4,-,N/A,,Clear,300,2013-03-21 20:35:00
3:55 PM,28.0,12.9,53,30.01,10.0,NNW,6.9,-,N/A,,Clear,330,2013-03-21 20:55:00
4:15 PM,28.0,13.6,55,30.01,10.0,WNW,9.2,-,N/A,,Clear,300,2013-03-21 21:15:00
4:35 PM,27.9,13.6,55,30.00,10.0,WNW,12.7,17.3,N/A,,Clear,300,2013-03-21 21:35:00
4:55 PM,27.5,12.9,54,30.00,10.0,NW,8.1,-,N/A,,Clear,310,2013-03-21 21:55:00
5:15 PM,27.3,12.7,54,30.00,10.0,NW,5.8,-,N/A,,Clear,310,2013-03-21 22:15:00
5:35 PM,27.9,13.5,55,30.00,10.0,NW,8.1,-,N/A,,Clear,310,2013-03-21 22:35:00
5:55 PM,27.5,13.1,55,30.00,10.0,WNW,8.1,-,N/A,,Clear,300,2013-03-21 22:55:00
6:15 PM,26.8,12.9,56,30.00,10.0,West,4.6,-,N/A,,Clear,280,2013-03-21 23:15:00
6:35 PM,26.2,12.9,57,30.00,10.0,WNW,6.9,-,N/A,,Clear,300,2013-03-21 23:35:00
6:55 PM,25.5,12.9,59,30.00,10.0,WNW,6.9,-,N/A,,Clear,290,2013-03-21 23:55:00
7:15 PM,24.8,12.7,60,30.00,10.0,WNW,6.9,-,N/A,,Clear,290,2013-03-22 00:15:00
7:35 PM,24.1,13.6,64,30.01,10.0,WNW,5.8,-,N/A,,Clear,290,2013-03-22 00:35:00
7:55 PM,23.9,14.7,68,30.01,10.0,West,8.1,-,N/A,,Clear,270,2013-03-22 00:55:00
8:15 PM,23.9,14.2,66,30.01,10.0,West,6.9,-,N/A,,Clear,280,2013-03-22 01:15:00
8:35 PM,23.4,14.5,69,30.02,10.0,West,8.1,-,N/A,,Clear,280,2013-03-22 01:35:00
8:55 PM,23.0,14.0,68,30.02,10.0,WNW,6.9,-,N/A,,Clear,290,2013-03-22 01:55:00
9:15 PM,22.5,14.9,73,30.02,10.0,WNW,4.6,-,N/A,,Clear,300,2013-03-22 02:15:00
9:35 PM,22.1,15.1,74,30.02,10.0,NW,4.6,-,N/A,,Clear,310,2013-03-22 02:35:00
9:55 PM,22.5,13.3,68,30.02,10.0,Calm,Calm,-,N/A,,Clear,0,2013-03-22 02:55:00
10:15 PM,22.1,13.8,70,30.02,10.0,NNW,3.5,-,N/A,,Clear,340,2013-03-22 03:15:00
10:35 PM,21.7,13.1,69,30.02,10.0,Calm,Calm,-,N/A,,Clear,0,2013-03-22 03:35:00
10:55 PM,21.2,13.3,72,30.03,10.0,Calm,Calm,-,N/A,,Clear,0,2013-03-22 03:55:00
11:15 PM,20.1,14.0,77,30.03,10.0,WNW,3.5,-,N/A,,Clear,300,2013-03-22 04:15:00
11:35 PM,21.0,13.8,74,30.03,10.0,Calm,Calm,-,N/A,,Clear,0,2013-03-22 04:35:00
11:55 PM,20.3,14.0,77,30.03,10.0,NW,3.5,-,N/A,,Clear,310,2013-03-22 04:55:00